TimeMST,TemperatureF,Dew PointF,Humidity,Sea Level PressureIn,VisibilityMPH,Wind Direction,Wind SpeedMPH,Gust SpeedMPH,PrecipitationIn,Events,Conditions,WindDirDegrees,DateUTC
12:53 AM,37.0,30.0,76,30.15,10.0,NNW,17.3,24.2,N/A,,Overcast,340,2012-11-15 07:53:00
1:42 AM,33.8,30.2,87,30.24,8.0,North,15.0,23.0,0.00,Snow,Light Snow,360,2012-11-15 08:42:00
1:53 AM,32.0,28.9,88,30.21,4.0,North,17.3,21.9,0.00,Snow,Light Snow,360,2012-11-15 08:53:00
2:02 AM,32.0,28.4,87,30.26,1.8,North,15.0,-,0.00,Snow,Light Snow,360,2012-11-15 09:02:00
2:18 AM,30.2,28.4,93,30.27,2.5,North,11.5,19.6,0.00,Snow,Light Snow,350,2012-11-15 09:18:00
2:29 AM,30.2,28.4,93,30.27,3.0,North,10.4,18.4,0.01,Snow,Light Snow,360,2012-11-15 09:29:00
2:53 AM,30.9,28.0,89,30.25,4.0,North,12.7,-,0.01,Snow,Light Snow,350,2012-11-15 09:53:00
3:53 AM,30.9,28.0,89,30.27,8.0,North,9.2,-,0.00,,Overcast,350,2012-11-15 10:53:00
4:53 AM,30.0,28.0,92,30.32,5.0,NNW,8.1,-,0.00,Snow,Light Snow,340,2012-11-15 11:53:00
5:53 AM,30.0,27.0,88,30.33,10.0,West,5.8,-,0.00,,Overcast,280,2012-11-15 12:53:00
6:53 AM,28.0,25.0,88,30.36,10.0,WNW,4.6,-,N/A,,Scattered Clouds,300,2012-11-15 13:53:00
7:53 AM,28.0,24.1,85,30.39,10.0,WNW,4.6,-,N/A,,Scattered Clouds,290,2012-11-15 14:53:00
8:53 AM,34.0,26.1,73,30.38,10.0,WNW,5.8,-,N/A,,Scattered Clouds,300,2012-11-15 15:53:00
9:53 AM,37.0,27.0,67,30.39,10.0,Calm,Calm,-,N/A,,Overcast,0,2012-11-15 16:53:00
10:53 AM,39.9,23.0,51,30.37,10.0,Variable,5.8,-,N/A,,Mostly Cloudy,0,2012-11-15 17:53:00
11:53 AM,41.0,24.1,51,30.35,10.0,South,10.4,-,N/A,,Scattered Clouds,190,2012-11-15 18:53:00
12:53 PM,43.0,25.0,49,30.30,10.0,South,12.7,17.3,N/A,,Clear,190,2012-11-15 19:53:00
1:53 PM,41.0,27.0,57,30.32,10.0,SSW,9.2,-,N/A,,Clear,210,2012-11-15 20:53:00
2:53 PM,39.9,26.1,58,30.33,10.0,SSW,12.7,-,N/A,,Clear,210,2012-11-15 21:53:00
3:53 PM,39.0,26.1,60,30.35,10.0,South,15.0,19.6,N/A,,Clear,190,2012-11-15 22:53:00
4:53 PM,35.1,26.1,70,30.38,10.0,SSW,12.7,-,N/A,,Clear,200,2012-11-15 23:53:00
5:53 PM,33.1,26.1,75,30.41,10.0,SSW,11.5,-,N/A,,Clear,210,2012-11-16 00:53:00
6:53 PM,32.0,26.1,79,30.42,9.0,SW,10.4,-,N/A,,Clear,220,2012-11-16 01:53:00
7:53 PM,30.9,25.0,79,30.42,7.0,SW,11.5,-,N/A,,Clear,220,2012-11-16 02:53:00
8:53 PM,28.9,24.1,82,30.39,6.0,SW,9.2,-,N/A,,Haze,220,2012-11-16 03:53:00
9:53 PM,30.0,26.1,85,30.36,6.0,SW,13.8,-,N/A,,Clear,220,2012-11-16 04:53:00
10:53 PM,30.0,26.1,85,30.33,5.0,SW,12.7,-,N/A,,Clear,220,2012-11-16 05:53:00
11:53 PM,30.0,26.1,85,30.30,6.0,SSW,13.8,-,N/A,,Clear,210,2012-11-16 06:53:00